TimeCST,TemperatureF,Dew PointF,Humidity,Sea Level PressureIn,VisibilityMPH,Wind Direction,Wind SpeedMPH,Gust SpeedMPH,PrecipitationIn,Events,Conditions,WindDirDegrees,DateUTC
12:53 AM,28.0,25.0,88,30.34,10.0,Calm,Calm,-,N/A,,Clear,0,2012-12-13 06:53:00
1:53 AM,28.0,25.0,88,30.34,10.0,Calm,Calm,-,N/A,,Clear,0,2012-12-13 07:53:00
2:53 AM,28.0,25.0,88,30.35,10.0,Calm,Calm,-,N/A,,Clear,0,2012-12-13 08:53:00
3:53 AM,27.0,24.1,89,30.35,10.0,Calm,Calm,-,N/A,,Clear,0,2012-12-13 09:53:00
4:53 AM,26.1,24.1,92,30.36,9.0,Calm,Calm,-,N/A,,Clear,0,2012-12-13 10:53:00
5:53 AM,26.1,23.0,88,30.37,10.0,Calm,Calm,-,N/A,,Clear,0,2012-12-13 11:53:00
6:53 AM,25.0,23.0,92,30.39,10.0,Calm,Calm,-,N/A,,Clear,0,2012-12-13 12:53:00
7:53 AM,28.0,25.0,88,30.39,10.0,Calm,Calm,-,N/A,,Clear,0,2012-12-13 13:53:00
8:53 AM,35.1,30.0,82,30.39,10.0,Calm,Calm,-,N/A,,Clear,0,2012-12-13 14:53:00
9:53 AM,44.1,28.9,55,30.39,10.0,East,4.6,-,N/A,,Clear,100,2012-12-13 15:53:00
10:53 AM,50.0,26.1,39,30.38,10.0,Variable,3.5,-,N/A,,Clear,0,2012-12-13 16:53:00
11:53 AM,53.1,24.1,32,30.35,10.0,SSE,5.8,-,N/A,,Clear,150,2012-12-13 17:53:00
12:53 PM,55.0,24.1,30,30.32,10.0,Calm,Calm,-,N/A,,Clear,0,2012-12-13 18:53:00
1:53 PM,57.0,24.1,28,30.30,10.0,Calm,Calm,-,N/A,,Clear,0,2012-12-13 19:53:00
2:53 PM,57.9,25.0,28,30.30,10.0,SSW,3.5,-,N/A,,Clear,200,2012-12-13 20:53:00
3:53 PM,57.0,24.1,28,30.29,10.0,South,3.5,-,N/A,,Clear,190,2012-12-13 21:53:00
4:53 PM,51.8,30.2,44,30.26,10.0,NE,4.6,-,N/A,,Clear,50,2012-12-13 22:53:00
6:53 PM,41.0,30.0,65,30.28,10.0,Calm,Calm,-,N/A,,Clear,0,2012-12-14 00:53:00
7:53 PM,37.0,30.9,79,30.28,10.0,Calm,Calm,-,N/A,,Clear,0,2012-12-14 01:53:00
8:53 PM,36.0,30.9,82,30.28,10.0,Calm,Calm,-,N/A,,Clear,0,2012-12-14 02:53:00
9:53 PM,33.1,28.9,85,30.30,10.0,Calm,Calm,-,N/A,,Clear,0,2012-12-14 03:53:00
10:53 PM,32.0,28.0,85,30.29,10.0,Calm,Calm,-,N/A,,Clear,0,2012-12-14 04:53:00
11:53 PM,32.0,28.0,85,30.29,10.0,Calm,Calm,-,N/A,,Clear,0,2012-12-14 05:53:00